Location: Hains Lake
(37.8540°N, 99.8578°W)
Time: 23:01:37
(UTC+00:00)

Vanguard 1 - Pass Details

Date: 01 December 2022
Orbit: 650 x 3831 km, 34.2° (Epoch: 05 February)

Event Time Altitude Azimuth Distance (km) Brightness Sun altitude
Exits shadow 12:09:42 - 242° (WSW) 3,549 12.5 -16.8°
Reaches altitude 10° 12:10:01 10° 240° (WSW) 3,527 12.5 -16.7°
Maximum altitude 12:15:01 16° 207° (SSW) 3,675 12.9 -15.7°
Drops below altitude 10° 12:21:38 10° 176° (S) 4,877 13.9 -14.5°
Sets 12:28:57 0° 158° (SSE) 6,623 14.9 -13.1°
